Broken Bow, NE

5:10 PM CST on December 14, 2017 (GMT -0600)
Broken Bow Municipal

Weather History for KBBW - March, 2013

Change the Weather History Date:

Sunday, March 24, 2013

  Actual Average Record
Temperature  
Mean Temperature 21 °F 40 °F  
Max Temperature 29 °F 54 °F 84 °F (1967)
Min Temperature 13 °F 27 °F 0 °F (1966)
Degree Days  
Heating Degree Days 44 24  
Month to date heating degree days 781 684  
Cooling Degree Days 0 0  
Month to date cooling degree days 0 0  
Year to date cooling degree days 0 0  
Moisture  
Dew Point 13 °F    
Average Humidity 63    
Maximum Humidity 80    
Minimum Humidity 46    
Precipitation  
Precipitation T in 0.06 in 1.56 in (1962)
Sea Level Pressure  
Sea Level Pressure 30.20 in    
Wind  
Wind Speed 18 mph (NNW)    
Max Wind Speed 32 mph    
Max Gust Speed 41 mph    
Visibility 9 miles    
Events Snow    
T = Trace of Precipitation, MM = Missing Value Source: NWS Daily Summary

Daily Weather History Graph

Daily Weather History Graph

Search for Another Location

Airport or City:

Trip Planner

Search our weather history database for the weather conditions in past years. The results will help you decide how hot, cold, wet, or windy it might be!

Date:

Astronomy

Mar. 24, 2013 Rise Set
Actual Time 7:34 AM CDT 7:55 PM CDT
Civil Twilight 7:06 AM CDT 8:23 PM CDT
Nautical Twilight 6:34 AM CDT 8:55 PM CDT
Astronomical Twilight 6:01 AM CDT 9:29 PM CDT
Moon 5:24 PM CDT (3/24) 5:47 AM CDT (3/24)
Length of Visible Light 13h 16m
Length of Day
12h 20m
Waxing Gibbous, 92% of the Moon is Illuminated
Mar 24
Waxing Gibbous
Mar 27
Full
Apr 2
Last Quarter
Apr 10
New
Apr 18
First Quarter

Hourly Weather History & Observations

Time (CDT) Temp. Windchill Dew Point Humidity Pressure Visibility Wind Dir Wind Speed Gust Speed Precip Events Conditions
12:53 AM 19.9 °F 6.2 °F 14.0 °F 78% 30.24 in 10.0 mi North 15.0 mph - N/A   Clear
1:53 AM 19.9 °F 5.7 °F 14.0 °F 78% 30.25 in 10.0 mi North 16.1 mph - N/A   Clear
2:53 AM 19.0 °F 3.2 °F 12.9 °F 77% 30.23 in 10.0 mi North 19.6 mph - N/A   Clear
3:53 AM 18.0 °F 3.1 °F 12.0 °F 78% 30.22 in 10.0 mi North 16.1 mph - N/A   Clear
4:53 AM 17.1 °F 1.0 °F 10.0 °F 74% 30.21 in 10.0 mi North 18.4 mph - N/A   Clear
5:53 AM 16.0 °F 0.6 °F 9.0 °F 74% 30.22 in 10.0 mi NNW 16.1 mph - N/A   Clear
6:53 AM 14.0 °F 2.0 °F 9.0 °F 80% 30.24 in 10.0 mi NNW 9.2 mph - N/A   Clear
7:53 AM 12.9 °F -1.6 °F 7.0 °F 77% 30.24 in 10.0 mi NNW 12.7 mph - N/A   Clear
8:53 AM 16.0 °F 1.7 °F 8.1 °F 71% 30.24 in 10.0 mi NNW 13.8 mph - N/A   Clear
9:53 AM 18.0 °F 1.7 °F 9.0 °F 68% 30.24 in 10.0 mi North 19.6 mph - N/A   Clear
10:53 AM 21.0 °F 5.4 °F 10.9 °F 65% 30.23 in 10.0 mi North 20.7 mph - N/A   Clear
11:53 AM 23.0 °F 7.6 °F 10.9 °F 60% 30.22 in 10.0 mi NNW 21.9 mph 32.2 mph N/A   Clear
12:53 PM 25.0 °F 10.6 °F 14.0 °F 63% 30.21 in 10.0 mi NNW 20.7 mph 33.4 mph N/A   Mostly Cloudy
1:53 PM 27.0 °F 12.8 °F 15.1 °F 61% 30.19 in 10.0 mi NNW 21.9 mph 29.9 mph N/A   Overcast
2:53 PM 27.0 °F 12.2 °F 12.0 °F 53% 30.18 in 10.0 mi NNW 24.2 mph 31.1 mph N/A   Overcast
3:53 PM 28.9 °F 14.0 °F 10.9 °F 47% 30.15 in 10.0 mi NW 27.6 mph 39.1 mph N/A   Scattered Clouds
4:53 PM 28.0 °F 14.3 °F 12.0 °F 51% 30.16 in 10.0 mi NNW 21.9 mph 34.5 mph N/A   Overcast
5:37 PM 24.8 °F 10.0 °F 17.6 °F 74% 30.08 in 3.0 mi North 21.9 mph 31.1 mph 0.00 in Snow Light Snow
5:53 PM 25.0 °F 9.9 °F 15.1 °F 66% 30.19 in 10.0 mi NNW 23.0 mph 29.9 mph 0.00 in   Overcast
6:53 PM 24.1 °F 9.8 °F 12.9 °F 62% 30.22 in 10.0 mi NNW 19.6 mph - N/A   Overcast
7:30 PM 23.0 °F 6.6 °F 15.8 °F 74% 30.11 in 2.5 mi NNW 25.3 mph 31.1 mph 0.00 in Snow Light Snow
7:43 PM 21.2 °F 6.8 °F 15.8 °F 80% 30.12 in 9.0 mi NNW 17.3 mph - 0.00 in   Mostly Cloudy
7:50 PM 21.2 °F 7.3 °F 15.8 °F 80% 30.12 in 10.0 mi NNW 16.1 mph - 0.00 in   Scattered Clouds
7:53 PM 21.9 °F 8.7 °F 15.1 °F 75% 30.24 in 10.0 mi NNW 15.0 mph - 0.00 in   Partly Cloudy
8:17 PM 21.2 °F 8.9 °F 15.8 °F 80% 30.12 in 9.0 mi NNW 12.7 mph - 0.00 in   Mostly Cloudy
8:41 PM 21.2 °F 6.8 °F 15.8 °F 80% 30.13 in 10.0 mi NNW 17.3 mph - 0.00 in   Scattered Clouds
8:53 PM 21.0 °F 6.6 °F 15.1 °F 78% 30.25 in 10.0 mi NNW 17.3 mph 25.3 mph 0.00 in   Clear
9:53 PM 19.9 °F 5.7 °F 14.0 °F 78% 30.27 in 10.0 mi NNW 16.1 mph - N/A   Clear
10:53 PM 19.0 °F 4.5 °F 14.0 °F 81% 30.28 in 10.0 mi NNW 16.1 mph - N/A   Clear
11:53 PM 19.0 °F 5.0 °F 12.9 °F 77% 30.29 in 10.0 mi NNW 15.0 mph - N/A   Partly Cloudy